Home   Weather   Bozeman   Past weeks
Flag for USA

Past Weather in Bozeman, Montana, USA — Yesterday and Last 2 Weeks

Now
53 °F

Overcast.


Feels Like: 52 °F
Forecast: 74 / 51 °F
Wind: 5 mph from East

Location: Gallatin Field

Current Time: Jul 17, 2019 at 4:59:55 am

Latest Report: Jul 17, 2019 at 3:56 am


Visibility: 10 mi

Pressure: 29.91 "Hg (25.08 "Hg at 1469m altitude)

Humidity: 96%

Dew Point: 52 °F

Location of BozemanLocation

Past Weather in Bozeman — Graph

°F

Bozeman Temperature Yesterday

Maximum temperature yesterday: 73 °F (at 1:56 pm)
Minimum temperature yesterday: 54 °F (at 5:56 am)
Average temperature yesterday: 62 °F

High & Low Weather Summary for the Past Weeks

 TemperatureHumidityPressure
High89 °F (Jul 11, 3:56 pm)96% (Jul 16, 4:03 am)30.19 "Hg (Jul 16, 4:03 am)
Low44 °F (Jul 9, 5:56 am)19% (Jul 14, 4:37 pm)29.75 "Hg (Jul 2, 6:56 pm)
Average64 °F66%29.98 "Hg
* Reported Jul 2 3:56 am — Jul 17 3:56 am, Bozeman. Weather by CustomWeather, © 2019

Note: Actual official high and low records may vary slightly from our data, if they occured in-between our weather recording intervals... More about our weather records

Advertising

Bozeman Weather History for the Previous 24 Hours

Scroll right to see more
 ConditionsComfort  
Time TempWeatherWind HumidityBarometerVisibility
3:56 am
Wed, Jul 17
53 °FOvercast.5 mph96%29.91 "Hg10 mi
2:56 am53 °FClear.5 mph93%29.89 "Hg10 mi
1:56 am55 °FPassing clouds.8 mph93%29.91 "Hg10 mi
12:56 am56 °FPassing clouds.10 mph93%29.90 "Hg10 mi
11:56 pm
Tue, Jul 16
58 °FLight rain. Overcast.14 mph87%29.93 "Hg10 mi
10:56 pm57 °FMostly cloudy.14 mph93%29.92 "Hg10 mi
9:56 pm60 °FLight rain. Overcast.8 mph83%29.93 "Hg10 mi
8:56 pm60 °FPassing clouds.6 mph80%29.90 "Hg10 mi
7:56 pm61 °FSunny.6 mph81%29.89 "Hg10 mi
6:56 pm62 °FRain. Mostly cloudy.6 mph73%29.91 "Hg6 mi
5:56 pm64 °FPartly sunny.12 mph70%29.89 "Hg10 mi
4:56 pm62 °FSunny.14 mph78%29.86 "Hg10 mi
4:28 pm63 °FScattered clouds.16 mph73%29.96 "Hg10 mi
4:16 pm61 °FThundershowers. Broken clouds.20 mph75%29.96 "Hg10 mi
3:56 pm65 °FThunderstorms. Mostly cloudy.16 mph73%29.92 "Hg10 mi
3:33 pm72 °FBroken clouds.No wind49%29.95 "Hg10 mi
3:18 pm73 °FThundershowers. Passing clouds.No wind48%29.96 "Hg10 mi
1:56 pm73 °FPartly sunny.6 mph50%29.87 "Hg10 mi
12:56 pm72 °FSunny.6 mph53%29.88 "Hg10 mi
11:56 am69 °FSunny.3 mph63%29.91 "Hg10 mi
10:56 am67 °FScattered clouds.No wind63%29.93 "Hg10 mi
9:56 am65 °FScattered clouds.No wind70%29.95 "Hg10 mi
8:56 am61 °FSunny.No wind81%29.95 "Hg10 mi
8:14 am60 °FPassing clouds.No wind80%30.05 "Hg10 mi
6:56 am55 °FSunny.No wind93%29.96 "Hg10 mi
5:56 am54 °FSunny.3 mph93%29.97 "Hg10 mi
5:29 am56 °FLight rain. Passing clouds.No wind93%30.05 "Hg10 mi
5:09 am57 °FLight rain. Passing clouds.7 mph93%30.06 "Hg10 mi
4:56 am56 °FLight rain. Partly cloudy.5 mph93%29.97 "Hg8 mi
4:03 am57 °FRain. Fog.6 mph96%30.09 "Hg6 mi
Weather by CustomWeather, © 2019

See weather overview